Home   Weather   Douglas   Past weeks

Flag for Isle of Man Past Weather in Douglas, Isle of Man — Yesterday and Last 2 Weeks

Now
57 °F

Light rain. Scattered clouds.


Feels Like: 55 °F
Forecast: 55 / 64 °F
Wind: 10 mph from Southeast

Location: Isle Of Man / Ronaldsway Airport

Current Time: Jul 21, 2017 at 6:10:34 pm

Latest Report: Jul 21, 2017 at 5:20 pm


Visibility: N/A

Pressure: 29.56 "Hg

Humidity: 82%

Dew Point: 52 °F

Location of DouglasLocation

Past Weather in Douglas — Graph

°F

Douglas Temperature Yesterday

Maximum temperature yesterday: 63 °F (at 2:50 pm)
Minimum temperature yesterday: 54 °F (at 12:50 am)
Average temperature yesterday: 57 °F

High & Low Weather Summary for the Past Weeks

 TemperatureHumidityPressure
High72 °F (Jul 18, 3:20 pm)100% (Jul 9, 10:50 pm)30.27 "Hg (Jul 9, 10:50 pm)
Low50 °F (Jul 8, 4:50 am)45% (Jul 10, 2:20 pm)29.47 "Hg (Jul 21, 6:20 am)
Average60 °F79%29.94 "Hg
* Reported Jul 6 4:20 pm — Jul 21 4:50 pm, Douglas. Weather by CustomWeather, © 2017

Note: Actual official high and low records may vary slightly from our data, if they occured in-between our weather recording intervals... More about our weather records

Advertising

Douglas Weather History for the Previous 24 Hours

Scroll right to see more
 ConditionsComfort  
Time TempWeatherWind HumidityBarometerVisibility
4:50 pm
Fri, Jul 21
57 °FRain. Passing clouds.10 mph88%29.56 "HgN/A
4:20 pm55 °FRain. Passing clouds.9 mph88%29.56 "HgN/A
3:20 pm55 °FRain. Passing clouds.14 mph88%29.56 "HgN/A
2:50 pm55 °FLight rain. Passing clouds.13 mph82%29.56 "HgN/A
2:20 pm57 °FLight rain. Scattered clouds.13 mph88%29.56 "HgN/A
1:50 pm55 °FLight rain. Scattered clouds.18 mph88%29.56 "HgN/A
1:20 pm57 °FRain. Passing clouds.12 mph88%29.53 "HgN/A
12:50 pm57 °FLight rain. Partly sunny.14 mph88%29.53 "HgN/A
11:50 am59 °FLight rain. Scattered clouds.17 mph88%29.50 "HgN/A
11:20 am59 °FLight rain. Low clouds.17 mph88%29.50 "HgN/A
10:50 am59 °FLight rain. Partly sunny.21 mph94%29.50 "HgN/A
10:20 am59 °FLight rain. Partly sunny.24 mph94%29.47 "HgN/A
9:50 am59 °FRain. Partly sunny.24 mph94%29.47 "HgN/A
9:20 am59 °FRain. Partly sunny.26 mph94%29.47 "Hg4 mi
8:50 am59 °FRain. Mostly cloudy.24 mph88%29.47 "Hg3 mi
8:20 am59 °FRain. Mostly cloudy.25 mph88%29.47 "Hg5 mi
7:50 am57 °FRain. Cloudy.28 mph94%29.47 "Hg4 mi
7:20 am57 °FRain. More clouds than sun.28 mph94%29.47 "Hg4 mi
6:50 am57 °FRain. Broken clouds.24 mph94%29.47 "Hg3 mi
6:20 am57 °FRain. Broken clouds.25 mph88%29.47 "Hg6 mi
5:50 am55 °FRain. Broken clouds.24 mph94%29.50 "Hg4 mi
5:20 am57 °FLight rain. Broken clouds.24 mph88%29.50 "HgN/A
4:50 am57 °FRain. Mostly cloudy.24 mph88%29.53 "HgN/A
3:50 am55 °FRain. Partly cloudy.17 mph88%29.56 "Hg4 mi
2:50 am55 °FRain. Passing clouds.18 mph82%29.59 "Hg4 mi
1:50 am55 °FLight rain. Passing clouds.20 mph88%29.62 "Hg4 mi
12:50 am57 °FPassing clouds.12 mph82%29.65 "HgN/A
11:50 pm
Thu, Jul 20
57 °FPassing clouds.17 mph82%29.65 "HgN/A
10:50 pm57 °FPassing clouds.17 mph82%29.65 "HgN/A
9:50 pm57 °FPassing clouds.15 mph82%29.65 "HgN/A
9:20 pm57 °FPassing clouds.15 mph82%29.68 "HgN/A
8:20 pm57 °FPassing clouds.14 mph77%29.68 "HgN/A
7:50 pm57 °FPassing clouds.14 mph77%29.68 "HgN/A
7:20 pm57 °FPassing clouds.15 mph72%29.68 "HgN/A
6:50 pm59 °FPassing clouds.12 mph63%29.68 "HgN/A
6:20 pm57 °FPassing clouds.17 mph77%29.68 "HgN/A
Weather by CustomWeather, © 2017

See weather overviewHow to use our weather pages